Hourly Weather Roundup
Issued by NWS Central Illinois

Home | Current Version | Previous Version | Text Only | Print | Product List | Glossary On
Versions: 1 2 3 4 5 6 7 8 9 10 11 12 13 14 15 16 17 18 19 20 21 22 23 24 25 26 27 28 29 30 31 32 33 34 35 36 37 38 39 40 41 42 43 44 45 46 47 48 49 50
000
NZUS43 KILX 131011
HWRILX

Area Weather Roundup
National Weather Service Lincoln IL
500 AM CDT SUN JUN 13 2021

NOTE:  "FAIR" indicates few or no clouds below 12,000 feet, with
       no sigificant weather and/or obstructions to visibility.


CITY           SKY/WX    TMP DP  RH WIND       PRES   REMARKS
Bloomington    MOCLDY    71  57  61 N10       29.97R
Champaign      CLEAR     72  69  90 N7        29.94R
Danville       CLEAR     70  67  90 N8        29.93R
Decatur        CLEAR     70  65  84 N6        29.93R
Effingham      CLEAR     72  69  89 CALM      29.92F
Flora          CLEAR     73  70  88 NW8       29.89S
Galesburg      CLEAR     56  50  79 CALM      30.00S
Jacksonville   CLEAR     64  57  79 CALM      29.96R
Lacon          CLEAR     65  54  66 CALM      29.97R
Lawrenceville  PTCLDY    73  70  90 NW6       29.87F
Litchfield     CLEAR     69  57  65 N6        29.95S
$$


CITY           SKY/WX    TMP DP  RH WIND       PRES   REMARKS
Lincoln        MOCLDY    72  53  51 N5        29.95R
Macomb         CLEAR     62  53  72 N6        30.01S
Mattoon        MOCLDY    71  69  93 N7        29.91S
Mt Carmel AP   CLEAR     73  71  94 N7        29.87F
Olney-Noble AP CLEAR     73  72  97 N3        29.89S
Paris AP       MOCLDY    69  69 100 NW6       29.92S
Peoria         CLEAR     68  53  58 VRB3      29.97R
Pontiac        CLOUDY    70  58  64 NW5       29.96R
Rantoul        CLEAR     71  67  88 NE6       29.94R
Robinson       CLEAR     67  67 100 N7        29.89F
Springfield    MOCLDY    71  56  58 N9        29.95R
Taylorville    MOCLDY    68  61  77 N7        29.94S
$$

...REGIONAL REPORTS...


CITY           SKY/WX    TMP DP  RH WIND       PRES   REMARKS
Chicago O`Hare PTCLDY    67  54  63 N9        29.94R
Kankakee       PTCLDY    69  68  96 CALM      29.95R
La Salle       CLEAR     64  55  71 NW6       29.97R
Moline         CLEAR     61  53  75 CALM      29.98R
Mount Sterling CLEAR     61  53  76 NW7       29.99R
Mount Vernon   CLEAR     74  74 100 CALM      29.89S
Pittsfield     CLEAR     67  55  64 N7        29.99S
Quincy         CLEAR     63  52  67 N7        29.99R
Rockford       CLEAR     63  50  62 N6        29.99R
$$


CITY           SKY/WX    TMP DP  RH WIND       PRES   REMARKS
Burlington     CLEAR     63  53  70 NW6       30.01R
Cedar Rapids   CLEAR     59  49  69 NW10      30.02R
Des Moines     CLEAR     63  53  70 W3        30.06R
Kirksville     CLEAR     63  51  65 N6        30.05R
Ottumwa        CLEAR     58  49  72 NW6       30.04R
St Louis       PTCLDY    76  57  51 N8        29.94S
$$


CITY           SKY/WX    TMP DP  RH WIND       PRES   REMARKS
Terre Haute    CLEAR     70  67  90 CALM      29.89S
Evansville     PTCLDY    73  68  84 N3        29.85F
Indianapolis   PTCLDY    70  67  90 NW7       29.89R
Lafayette      CLEAR     74  65  73 CALM      29.91R
Madison        CLEAR     55  53  93 CALM      29.99R
Milwaukee      CLEAR     66  62  87 NW3       29.95S
$$





USA.gov is the U.S. government's official web portal to all federal, state and local government web resources and services.